User: anonymous
Location: Albany
(35.0000°S, 118.0000°E)
Time: 21:18:45
(UTC-04:00)
Language:

Transit 2A - Orbit

View from above orbital plane
View from above orbital plane
View from above satellite
View from above satellite

Ground track
Ground track

The orbit data is extracted from the following two-line orbital elements,

1 00045U 60007A   14211.44340299 -.00000010  00000-0  24512-4 0  1976
2 00045 066.6950 282.5716 0249886 079.1317 002.0781 14.33019541814696
Epoch (UTC): 30 July 2014 10:38:30
Eccentricity: 0.0249886
inclination: 66.6950°
perigee height: 603 km
apogee height: 960 km
right ascension of ascending node: 282.5716°
argument of perigee: 79.1317°
revolutions per day: 14.33019541
mean anomaly at epoch: 2.0781°
orbit number at epoch: 81469

The dashed part of the orbit path shows where the satellite is in the earth's shadow,  

DLR